Regional Weather Roundup
Issued by NWS Goodland, KS

Home | Current Version | Previous Version | Text Only | Print | Product List | Glossary Off
Versions: 1 2 3 4 5 6 7 8 9 10 11 12 13 14 15 16 17 18 19 20 21 22 23 24 25 26 27 28 29 30 31 32 33 34 35 36 37 38 39 40 41 42 43 44 45 46 47 48 49 50

680
ASUS43 KGLD 182208
RWRGLD

GOODLAND FORECAST AREA HOURLY WEATHER ROUNDUP
NATIONAL WEATHER SERVICE GOODLAND KS
400 PM MDT WED OCT 18 2017

...OFFICIAL OBSERVATIONS...

CITY           SKY/WX    TMP DP  RH WIND       PRES   REMARKS
GOODLAND KS    SUNNY     80  18  10 NE14      30.05R
HILL CITY KS   SUNNY     83  31  15 N10       29.99R
IMPERIAL NEB   SUNNY     76  25  15 NE10      30.06R
MCCOOK NEB     LGT RAIN  76  33  21 NE15      30.02R
AKRON CO       SUNNY     76  15  10 NE7       30.10S
BURLINGTON CO  LGT RAIN  79  16   9 N10       30.09R
LIMON CO       SUNNY     76  14   9 S7        30.14R
$$

...UNOFFICIAL OBSERVATIONS...

CITY           SKY/WX    TMP DP  RH WIND       PRES   REMARKS
LENORA KS        N/A     76  32  20 MISG        N/A
NORTON KS      SUNNY     79  21  11 N12       29.99
SHARON SPRINGS   N/A     83  25  12 CALM        N/A
TRENTON NEB      N/A     76  32  20 NE7         N/A
YUMA CO        FAIR      73  19  13 NE5       30.08R
$$




USA.gov is the U.S. government's official web portal to all federal, state and local government web resources and services.